Ana Sayfa
METAR-TAF:

METAR-TAF

Havaalanları :

St. Clair County International Airport

Port Huron, Michigan, Amerika Birleşik Devletleri

Enlem: 42-55N, Boylam: 082-32W, yükseklik: 198 m

Güncel hava durumu gözlemi

Rapor saat 16:35 UTC de 10 dakika önce yapıldı.
Rüzgar güneybatıdan 3 kt
Sıcaklık 31°C
Nem 66%
Basınç 1011 hPa
Görüş mesafesi: 16.1 km
2600 ft yükseklikte çok bulutlu

METAR: KPHN 191635Z AUTO 23003KT 10SM OVC026 31/24 A2984 RMK AO2

Saat: 12:45 (16:45 UTC)


TAF: eksik

4.000'den fazla havaalanı için hava durumu gözlemleri ve tahminleri (METAR ve TAF raporları).

Kullanılabilir istasyonlar harita üzerinde sarı ve kırmızı noktalarla gösterilir.

İstasyonun adını görmek için fareyi noktanın üzerinde gezdirin.

Sonrasında hava gözlem ve tahminlerini görmek için tıklayın.

Haritayı değiştirmek için: yaklaştırmak için siyah artı işaretli yeşil düğmeye ve uzaklaştırmak için de eksi işaretli düğmeye hızla tıklayın; bitişik haritalar için yeşil okları kullanın.


METAR-TAF: